Theta_e
291 290 290 288 287 287 287 287 287 286 285 285 285 285 285 286 286 286 286 286 287 287 287 288 288 289 289 289 289 290 292 293 294 294 294 294 294 294 295 296 296 296 297
290 289 289 287 287 287 287 287 287 286 285 285 285 285 285 285 285 285 285 286 286 286 287 287 287 288 288 289 289 290 291 292 292 293 293 293 293 294 296 296 296 297 298
290 289 288 286 287 287 287 287 286 285 285 285 285 285 284 284 284 284 284 285 286 286 287 287 287 288 288 288 288 289 290 290 291 291 292 292 293 294 296 296 296 298 297
290 289 287 286 286 287 287 287 286 285 285 285 285 284 284 283 284 284 285 286 287 287 287 285 285 285 285 285 286 286 287 289 289 290 291 292 293 294 294 294 296 296 297
291 288 287 286 286 287 287 287 286 285 285 285 284 284 283 284 284 284 285 287 286 285 284 284 284 283 284 283 284 285 286 287 288 289 290 290 291 291 292 293 295 296 298
290 288 288 286 286 286 287 287 286 285 284 284 284 283 284 284 284 285 286 286 284 284 283 284 284 284 283 283 283 284 285 286 287 288 289 289 289 291 295 295 295 294 294
287 287 286 285 285 286 287 286 285 284 284 284 283 283 284 283 284 284 285 285 283 283 283 283 283 283 283 283 284 284 283 284 286 287 288 288 289 289 292 294 295 296 297
287 286 286 285 284 285 285 285 283 283 283 284 283 283 283 283 282 282 284 283 282 283 283 283 282 282 282 283 283 282 282 283 284 286 286 286 286 286 287 289 294 296 294
286 286 286 285 284 284 285 284 283 283 283 283 283 283 283 283 281 282 284 283 282 282 282 282 282 281 283 283 282 281 281 282 282 283 283 284 284 285 286 288 292 293 289
286 287 287 285 283 284 285 284 283 282 283 282 282 282 282 282 280 281 283 283 282 281 282 282 281 281 282 281 281 280 281 281 281 281 283 283 284 286 289 294 294 294 289
285 286 286 284 283 284 285 284 284 282 282 282 281 281 282 282 280 281 282 281 281 281 281 281 281 281 281 280 281 280 280 281 281 281 281 282 282 284 288 291 293 295 292
285 285 285 283 282 283 284 284 283 282 281 281 282 282 282 282 281 281 281 281 280 280 280 280 280 280 280 279 279 279 278 281 280 280 280 280 280 281 280 283 288 291 290
286 284 284 283 282 282 283 283 282 281 280 282 282 282 282 282 281 281 282 281 281 280 279 279 279 281 280 282 278 280 281 280 280 279 278 279 280 281 281 281 283 286 287
285 284 284 283 281 281 282 283 283 281 282 282 282 282 282 282 281 282 282 281 281 281 280 279 279 280 280 280 281 281 280 279 278 278 278 279 281 282 282 281 281 280 279
285 284 283 283 282 281 281 283 283 284 284 284 283 283 282 282 282 282 282 282 281 281 279 280 280 279 280 280 280 280 280 280 279 278 278 278 278 279 279 279 279 279 278
284 284 284 283 282 281 281 282 283 284 283 283 283 282 282 281 281 281 281 281 281 281 279 278 277 276 275 276 278 279 279 279 278 278 278 277 276 276 277 277 277 276 276
286 284 284 282 281 281 280 281 281 282 282 282 282 283 282 282 281 280 280 281 281 280 278 277 276 276 276 276 276 277 277 278 279 279 278 277 278 277 276 276 276 276 275
287 286 284 284 283 281 281 281 282 281 281 282 283 283 282 282 281 280 280 280 280 279 277 276 275 275 276 277 278 278 278 279 280 281 279 279 279 278 278 276 275 274 273
285 286 284 284 283 283 282 281 281 281 281 282 282 282 282 282 281 280 280 279 280 279 277 276 275 275 275 276 277 278 279 280 279 279 279 280 279 279 276 276 275 274 273
286 286 285 283 282 281 281 280 279 280 280 281 281 281 281 280 280 280 280 279 279 279 278 276 275 275 275 275 275 276 278 279 280 280 279 278 278 279 278 277 276 274 272
286 285 284 282 281 280 280 280 279 279 279 279 280 282 282 281 281 280 280 280 279 279 279 278 276 275 275 274 274 275 275 275 276 278 279 279 280 279 276 276 274 273 273
285 285 283 282 281 280 280 280 279 279 279 279 279 280 280 281 281 281 280 280 280 278 278 279 277 276 276 276 275 274 274 274 274 275 275 277 278 278 279 278 276 275 275
285 284 283 281 281 281 279 279 279 279 279 279 279 279 280 279 281 281 281 280 279 279 278 278 278 277 276 276 276 274 274 274 274 274 274 274 274 275 275 276 275 275 274
285 284 283 281 280 280 279 278 278 279 279 279 279 279 279 280 282 282 281 280 279 278 278 278 277 276 276 276 276 275 274 274 274 273 273 274 273 273 273 273 273 273 272
283 282 281 281 280 279 278 278 278 278 279 278 278 278 279 280 281 282 281 280 279 278 277 277 276 276 276 275 275 274 274 274 274 274 273 273 273 272 272 272 272 272 272
281 280 280 280 279 279 279 278 278 278 278 278 278 278 279 279 281 282 281 280 279 278 277 276 276 276 275 275 274 274 273 273 273 273 273 273 273 273 272 272 271 271 271
Wind_Speed
22 19 18 17 15 14 14 13 12 11 10 11 12 13 14 16 16 17 19 20 20 22 23 23 25 25 24 24 26 27 26 25 17 32 27 27 29 33 36 29 33 34 33
23 21 19 17 17 16 14 12 10 10 9 10 11 12 14 16 17 17 20 21 22 22 23 24 26 24 25 25 25 27 26 26 27 25 28 28 29 29 29 35 34 33 26
24 24 22 20 19 17 14 11 9 9 9 9 11 12 15 17 17 18 19 19 21 23 25 25 24 23 25 25 26 27 27 27 27 28 30 29 29 30 27 32 30 30 23
28 28 26 23 20 17 14 11 9 7 9 10 10 12 14 15 14 14 15 20 24 20 21 25 23 23 25 26 26 27 27 27 26 26 26 25 24 25 25 24 25 26 21
33 33 31 24 20 17 15 12 9 8 8 10 11 12 13 13 12 13 16 19 22 22 19 18 19 21 22 23 25 26 25 26 25 23 22 22 21 22 21 21 19 22 19
37 37 32 26 22 20 17 14 11 8 8 9 11 13 14 12 12 10 16 19 20 19 19 20 20 20 22 24 23 25 27 28 26 23 23 19 22 22 20 18 18 7 2
34 35 29 27 23 21 19 14 11 9 9 9 12 13 11 12 12 11 15 17 19 18 18 21 22 23 24 26 27 25 26 22 25 29 27 24 20 20 22 19 19 14 10
30 31 30 28 24 22 20 17 13 11 11 11 12 11 11 11 14 11 14 15 17 16 16 17 20 24 26 26 28 27 23 18 17 18 22 27 28 30 28 27 22 17 8
31 33 32 30 26 25 23 19 15 13 13 14 14 14 11 12 13 11 12 14 16 15 15 16 19 21 25 23 24 22 23 20 15 16 18 20 22 24 26 25 18 13 2
30 32 31 30 28 28 25 20 15 14 13 13 13 13 10 11 11 8 9 12 14 15 19 19 18 19 24 20 21 19 18 22 19 17 12 10 11 13 16 19 22 15 6
24 23 25 27 28 27 23 19 16 14 12 13 14 12 9 9 8 7 9 10 12 17 19 21 21 20 21 19 19 18 16 16 13 11 11 12 13 9 6 6 12 15 11
19 20 24 26 27 26 25 19 16 14 13 15 13 13 8 8 8 6 9 9 10 14 17 18 19 19 17 17 19 17 14 11 14 16 19 21 21 21 21 20 21 17 14
21 24 23 23 26 25 25 24 19 15 15 17 13 14 9 7 6 4 7 9 10 12 15 16 13 15 16 17 18 19 19 20 19 20 18 18 17 17 19 24 29 29 28
25 25 22 23 25 25 24 24 25 22 19 18 16 16 12 8 7 4 5 7 9 10 9 11 12 14 18 19 21 21 22 20 19 17 15 15 15 20 22 21 23 30 37
27 26 23 25 25 26 26 27 28 26 22 19 18 14 13 11 7 4 3 4 7 8 7 10 16 22 24 25 25 25 24 23 22 19 18 17 19 20 22 23 26 28 27
28 27 26 26 26 27 26 25 24 22 18 17 15 13 12 10 6 3 1 2 4 5 6 13 16 19 21 22 24 24 25 24 22 21 21 21 22 22 23 26 26 24 24
27 25 28 26 26 27 26 26 21 20 15 15 15 12 11 9 8 5 3 1 3 4 8 11 14 16 18 19 20 22 22 21 20 22 22 22 24 26 26 24 22 25 24
31 30 28 28 29 28 27 27 26 22 19 19 16 15 13 10 9 7 6 4 5 5 8 9 12 14 16 17 18 20 19 21 23 23 24 24 25 27 28 27 26 24 22
31 29 30 28 27 28 26 24 24 24 23 22 21 18 16 13 10 8 11 8 8 9 9 10 11 12 13 15 16 17 19 21 22 23 23 22 23 26 27 26 27 27 28
29 26 27 28 26 25 25 24 24 23 22 24 26 27 23 19 18 18 16 13 10 10 9 9 11 12 13 13 14 15 16 18 19 20 21 21 21 22 23 24 26 30 31
28 25 26 25 26 26 26 26 24 23 22 25 30 29 27 28 25 21 18 15 13 12 11 11 11 11 12 13 13 13 14 17 17 17 16 16 15 20 22 26 27 28 29
27 25 23 26 26 26 26 26 26 25 24 24 28 30 24 27 26 22 20 18 16 13 11 10 11 11 11 12 13 11 13 15 15 15 17 17 18 19 19 20 20 21 21
26 23 22 25 27 25 23 25 26 26 25 26 27 29 30 30 30 27 24 20 19 18 17 15 13 11 11 11 10 12 11 13 14 13 15 17 18 18 18 19 19 19 18
25 24 25 26 25 24 25 24 25 27 26 26 28 30 33 34 32 29 26 24 23 21 19 18 16 14 12 11 10 9 10 11 12 13 11 13 16 16 16 17 16 16 19
21 23 25 25 25 24 23 23 25 26 27 27 28 31 33 35 34 31 28 27 25 25 23 21 19 17 15 13 12 11 10 10 10 10 10 10 12 12 13 14 14 16 17
18 22 24 25 24 24 24 23 24 24 26 28 29 31 33 36 36 34 31 30 29 27 25 24 22 20 18 16 14 13 12 11 10 10 9 9 8 10 10 11 12 12 15
Wind_Direction
247 232 230 233 240 247 255 266 280 293 299 299 301 304 307 308 305 302 301 299 294 293 292 289 287 287 282 283 280 277 273 271 271 286 284 288 288 288 296 298 299 298 299
244 234 228 228 235 243 252 266 276 287 290 297 298 304 309 307 309 307 304 300 297 293 292 289 286 286 282 281 274 276 270 272 271 283 287 287 282 284 287 293 298 296 293
245 234 227 226 231 238 245 257 268 284 292 298 298 304 304 311 315 312 306 300 300 297 295 289 291 295 290 286 282 276 274 274 274 276 285 283 280 278 279 291 293 289 282
238 231 227 223 227 232 240 251 267 287 296 295 299 299 307 318 322 320 318 316 310 305 300 303 301 299 297 296 292 285 282 277 273 273 278 282 280 282 283 285 279 282 272
235 227 226 222 224 229 237 245 257 273 288 293 297 300 309 326 330 327 325 323 316 311 308 310 313 311 307 302 294 290 285 277 269 268 269 272 270 272 264 265 256 264 270
233 224 221 218 220 227 233 238 244 258 280 286 291 296 311 324 326 323 326 320 316 309 314 320 320 322 326 319 302 297 285 278 269 267 268 266 272 264 279 255 249 219 234
230 221 215 215 217 224 231 231 234 248 262 278 285 298 319 330 322 317 318 316 318 318 319 324 322 322 322 325 317 309 305 282 264 263 262 263 274 281 286 279 238 240 221
218 218 214 214 217 220 228 231 234 242 253 269 281 290 307 329 324 313 311 311 321 327 327 330 332 329 337 326 326 324 325 308 290 276 265 271 273 277 275 274 280 234 209
219 218 215 214 214 215 222 227 236 236 248 260 270 283 301 326 322 314 314 323 324 336 347 346 341 340 338 331 332 331 330 340 320 296 287 276 275 277 272 273 234 182 143
221 220 217 215 215 215 222 224 226 229 246 260 268 274 296 319 323 322 329 340 332 333 343 348 343 342 341 338 341 343 334 337 337 334 328 313 296 286 274 242 214 180 134
237 230 222 219 219 220 221 225 223 223 241 254 261 273 281 306 321 337 347 348 339 329 340 342 344 344 347 349 356 358 347 334 351 3 18 32 36 36 70 181 195 191 150
260 239 222 217 218 219 222 225 219 222 236 245 257 268 267 293 305 336 348 349 350 346 341 341 345 343 353 1 8 8 15 27 38 45 37 34 30 32 51 88 111 123 119
256 235 223 218 219 220 219 222 219 222 229 245 247 261 268 276 290 327 346 351 352 350 354 345 351 0 20 26 23 28 40 44 46 44 30 34 45 58 72 81 95 97 94
252 236 223 217 217 218 219 221 219 224 230 242 244 250 260 272 277 307 330 351 359 358 351 11 31 40 40 41 41 40 42 44 46 49 48 57 65 70 67 71 72 78 77
249 243 224 217 217 216 218 219 222 232 236 240 246 250 253 265 268 299 322 355 15 12 27 37 39 42 42 38 42 41 43 45 46 46 53 59 66 67 68 74 74 80 86
246 239 229 218 214 217 217 222 228 237 238 240 245 247 248 252 238 257 315 11 9 28 53 58 47 43 45 43 39 40 44 46 49 58 63 65 68 67 70 76 84 80 84
264 246 233 221 218 213 212 213 217 221 225 226 228 227 233 230 216 227 246 72 76 70 90 73 66 52 44 48 53 52 48 49 55 60 66 76 82 85 79 76 76 81 75
260 247 236 225 219 219 217 215 215 209 200 210 212 213 216 217 216 218 223 170 130 124 112 98 81 69 61 53 55 58 63 65 65 66 70 78 87 93 92 88 86 81 77
242 236 236 230 222 220 220 216 214 212 210 211 200 202 210 211 218 224 219 210 181 158 140 123 105 88 76 70 61 59 59 60 67 75 78 79 84 90 91 95 97 94 93
245 239 233 230 220 214 213 211 208 206 204 206 208 211 203 201 208 207 214 211 193 172 153 137 121 108 96 83 76 75 76 74 71 70 73 79 86 90 94 99 102 103 100
244 232 226 223 219 212 207 207 207 202 202 206 217 221 215 213 218 217 213 209 204 189 170 154 138 122 109 99 91 88 85 84 83 83 82 80 82 86 95 101 103 106 110
236 224 219 219 216 209 207 209 212 208 209 211 220 223 213 217 226 224 219 210 202 195 185 173 157 142 128 118 106 94 92 89 88 91 95 98 100 102 104 101 101 102 106
226 220 217 219 219 216 209 208 209 210 210 215 222 222 208 215 219 220 216 208 202 192 187 185 178 165 151 143 134 122 109 100 98 95 102 104 106 109 111 112 116 118 118
222 219 215 214 216 213 212 207 209 214 213 214 218 223 217 213 219 216 214 206 203 199 194 191 184 176 169 163 155 139 128 117 111 105 101 107 109 111 112 113 117 120 123
222 217 215 216 213 210 211 210 211 213 214 214 216 222 224 217 219 215 211 206 204 200 196 193 190 185 178 172 165 158 150 141 134 126 120 119 115 112 110 107 111 117 121
232 229 226 220 216 214 213 211 211 209 211 216 219 222 221 220 218 214 208 205 203 201 197 194 193 190 187 181 176 169 165 160 157 152 143 139 136 129 123 118 115 121 126